Location: Kunchanapalle
(16.4623°N, 80.6176°E)
Time: 09:38:22
(UTC+00:00)

Cosmos 2082 Rocket - Pass Details

Date: 13 August 2020
Orbit: 835 x 852 km, 71.0° (Epoch: 18 September)

Event Time Altitude Azimuth Distance (km) Brightness Sun altitude
Rises 13:34:35 0° 185° (S) 3,404 5.2 -8.0°
Reaches altitude 10° 13:37:05 10° 181° (S) 2,469 4.5 -8.6°
Maximum altitude 13:42:35 53° 105° (ESE) 1,029 2.3 -9.8°
Drops below altitude 10° 13:48:05 10° 29° (NNE) 2,466 4.5 -11.1°
Sets 13:50:34 0° 25° (NNE) 3,399 5.3 -11.7°
